Location: Poughquag
(41.6090°N, 73.6820°W)
Time: 12:44:21
(UTC-04:00)

Transit 2A - Pass Details

Date: 29 May 2020
Orbit: 592 x 967 km, 66.7° (Epoch: 06 July)

Event Time Altitude Azimuth Distance (km) Brightness Sun altitude
Rises 01:08:16 0° 314° (NW) 3,593 10.0 -26.6°
Reaches altitude 10° 01:11:31 10° 298° (WNW) 2,679 9.0 -26.5°
Enters shadow 01:15:17 19° 261° (W) 2,125 8.1 -26.5°
Maximum altitude 01:15:44 19° 256° (WSW) 2,119 - -26.5°
Drops below altitude 10° 01:19:58 10° 213° (SSW) 2,696 - -26.4°
Sets 01:23:17 0° 197° (SSW) 3,622 - -26.3°
